CW4352 Weather Reports


time (UTC)temp
C
wind
direction
speed
KPH
gust
KPH
rain 1hr
cm
rain 24hr
cm
rain mn
cm
humidity
%
barometer
mb
20260504223703 16 30 0.0 3.2 0.00 0.00 0.00 45 1010.5
20260504220705 16 30 0.0 3.2 0.00 0.00 0.00 46 1010.4
20260504220203 16 30 1.6 8.0 0.00 0.00 0.00 46 1010.4
20260504213204 16 30 0.0 4.8 0.00 0.00 0.00 46 1010.6
20260504211703 16 30 0.0 3.2 0.00 0.00 0.00 46 1010.6
20260504210204 16 30 0.0 4.8 0.00 0.00 0.00 46 1010.6
20260504204704 16 30 1.6 8.0 0.00 0.00 0.00 46 1010.6
20260504204203 16 30 0.0 4.8 0.00 0.00 0.00 47 1010.6
20260504200203 16 30 1.6 4.8 0.00 0.00 0.00 44 1010.5
20260504194203 17 30 3.2 4.8 0.00 0.00 0.00 47 1009.5
20260504193204 17 30 3.2 8.0 0.00 0.00 0.00 49 1009.5
20260504191703 17 30 0.0 3.2 0.00 0.00 0.00 52 1009.5
20260504190704 17 30 3.2 4.8 0.00 0.00 0.00 52 1009.5
20260504190204 17 30 1.6 4.8 0.00 0.00 0.00 51 1009.5
20260504184204 18 30 1.6 8.0 0.00 0.00 0.00 43 1009.5
20260504181703 21 30 0.0 0.0 0.00 0.00 0.00 40 1009.3
20260504180204 21 30 0.0 3.2 0.00 0.00 0.00 39 1009.3
20260504173706 22 30 0.0 1.6 0.00 0.00 0.00 37 1009.4
20260504173205 22 30 1.6 9.7 0.00 0.00 0.00 38 1009.4
20260504171205 22 30 1.6 4.8 0.00 0.00 0.00 42 1009.5
20260504150705 23 39 0.0 3.2 0.00 0.00 0.00 33 1010.1
20260504141205 23 40 3.2 8.0 0.00 0.00 0.00 33 1010.5
20260504140706 23 40 0.0 4.8 0.00 0.00 0.00 33 1010.6
20260504140205 23 42 1.6 4.8 0.00 0.00 0.00 36 1010.6
20260504130705 23 43 3.2 4.8 0.00 0.00 0.00 34 1011.1
20260504120205 22 24 1.6 4.8 0.00 0.00 0.00 31 1011.6
20260504081705 20 9 1.6 4.8 0.00 0.00 0.00 40 1012.6
20260504081205 19 9 1.6 4.8 0.00 0.00 0.00 41 1012.6
20260504080705 19 9 1.6 4.8 0.00 0.00 0.00 41 1012.6
20260504060205 15 9 0.0 3.2 0.00 0.00 0.00 56 1011.8
20260504044205 12 9 1.6 4.8 0.00 0.00 0.00 47 1011.2
20260504043705 12 9 1.6 4.8 0.00 0.00 0.00 46 1011.2
20260504043206 12 9 0.0 4.8 0.00 0.00 0.00 46 1011.2
20260504041705 12 9 4.8 9.7 0.00 0.00 0.00 47 1011.2
20260504041205 12 10 3.2 8.0 0.00 0.00 0.00 49 1011.2
20260504040205 11 17 3.2 8.0 0.00 0.00 0.00 51 1011.2
20260504031205 11 19 0.0 0.0 0.00 0.00 0.00 59 1011.6
20260504030205 11 19 0.0 3.2 0.00 0.00 0.00 56 1011.6
20260504024705 11 19 0.0 3.2 0.00 0.00 0.00 57 1011.6
20260504023205 11 19 0.0 3.2 0.00 0.00 0.00 55 1011.6
20260504021705 11 19 0.0 3.2 0.00 0.00 0.00 56 1011.6
20260504021205 11 19 0.0 0.0 0.00 0.00 0.00 57 1011.6
20260504014705 12 19 1.6 4.8 0.00 0.00 0.00 62 1011.6
20260504014205 12 19 1.6 4.8 0.00 0.00 0.00 62 1011.6
20260504013205 12 19 0.0 4.8 0.00 0.00 0.00 61 1011.7
20260504011704 13 19 0.0 3.2 0.00 0.00 0.00 58 1011.7
20260504011205 13 19 0.0 1.6 0.00 0.00 0.00 57 1011.7
20260504010705 13 19 0.0 0.0 0.00 0.00 0.00 57 1011.7
20260504004205 15 19 0.0 0.0 0.00 0.00 0.00 50 1011.7
20260504003705 15 19 0.0 0.0 0.00 0.00 0.00 50 1011.7
20260504000205 15 19 0.0 4.8 0.00 0.00 0.00 48 1011.9
20260503234704 16 19 0.0 3.2 0.00 0.00 0.00 48 1011.9
20260503234205 16 19 0.0 0.0 0.00 0.00 0.00 47 1012.1
20260503231705 16 19 0.0 3.2 0.00 0.00 0.00 49 1012.1
20260503231204 16 19 0.0 3.2 0.00 0.00 0.00 49 1012.1
20260503230706 16 19 0.0 3.2 0.00 0.00 0.00 49 1012.1
20260503224204 16 19 1.6 4.8 0.00 0.00 0.00 50 1012.1